TimeEST,TemperatureF,Dew PointF,Humidity,Sea Level PressureIn,VisibilityMPH,Wind Direction,Wind SpeedMPH,Gust SpeedMPH,PrecipitationIn,Events,Conditions,WindDirDegrees,DateUTC
12:53 AM,32.0,23.0,69,29.68,10.0,NW,6.9,-,N/A,,Overcast,320,2013-03-03 05:53:00
1:53 AM,30.9,24.1,76,29.68,10.0,NNW,6.9,-,N/A,,Overcast,330,2013-03-03 06:53:00
2:20 AM,30.2,24.8,80,29.62,10.0,NW,6.9,-,N/A,,Overcast,320,2013-03-03 07:20:00
2:53 AM,30.9,23.0,72,29.67,10.0,WNW,6.9,-,N/A,,Overcast,300,2013-03-03 07:53:00
3:53 AM,30.0,23.0,75,29.66,10.0,NW,6.9,-,N/A,,Overcast,320,2013-03-03 08:53:00
4:53 AM,30.0,21.9,72,29.67,10.0,NNW,8.1,-,0.00,,Overcast,330,2013-03-03 09:53:00
5:53 AM,30.0,21.9,72,29.67,10.0,NNW,6.9,-,N/A,,Overcast,330,2013-03-03 10:53:00
6:45 AM,28.4,23.0,80,29.62,3.0,NNW,6.9,-,0.00,Snow,Light Snow,330,2013-03-03 11:45:00
6:53 AM,28.9,23.0,78,29.68,2.5,NNW,5.8,-,0.00,Snow,Light Snow,330,2013-03-03 11:53:00
7:46 AM,28.4,24.8,86,29.63,3.0,NNW,6.9,-,0.00,Snow,Light Snow,330,2013-03-03 12:46:00
7:53 AM,28.9,24.1,82,29.68,1.8,NNW,6.9,-,0.00,Snow,Light Snow,330,2013-03-03 12:53:00
8:19 AM,28.4,24.8,86,29.63,1.2,NW,6.9,-,0.00,Snow,Light Snow,320,2013-03-03 13:19:00
8:45 AM,28.4,24.8,86,29.62,0.8,NW,4.6,-,0.00,Snow,Light Snow,320,2013-03-03 13:45:00
8:53 AM,28.9,25.0,85,29.68,1.2,NW,3.5,-,0.00,Snow,Light Snow,310,2013-03-03 13:53:00
9:53 AM,30.9,26.1,82,29.67,1.5,NNW,6.9,-,0.01,Snow,Light Snow,330,2013-03-03 14:53:00
10:07 AM,30.2,26.6,86,29.61,2.5,NW,6.9,-,0.00,Snow,Light Snow,320,2013-03-03 15:07:00
10:15 AM,30.2,26.6,86,29.61,3.0,NW,6.9,-,0.00,Snow,Light Snow,320,2013-03-03 15:15:00
10:53 AM,33.1,27.0,78,29.66,4.0,NW,8.1,-,0.00,Snow,Light Snow,320,2013-03-03 15:53:00
11:17 AM,33.8,26.6,75,29.60,4.0,NW,5.8,-,0.00,Snow,Light Snow,310,2013-03-03 16:17:00
11:53 AM,36.0,28.0,73,29.64,8.0,NNW,8.1,-,0.00,Snow,Light Snow,330,2013-03-03 16:53:00
12:53 PM,36.0,28.0,73,29.62,10.0,North,6.9,-,0.00,,Overcast,350,2013-03-03 17:53:00
1:53 PM,37.9,28.0,68,29.61,10.0,NW,5.8,-,0.00,,Overcast,320,2013-03-03 18:53:00
2:43 PM,39.2,26.6,61,29.55,10.0,NW,5.8,-,N/A,,Mostly Cloudy,320,2013-03-03 19:43:00
2:53 PM,39.0,27.0,62,29.60,10.0,NW,6.9,-,N/A,,Overcast,320,2013-03-03 19:53:00
3:28 PM,39.2,24.8,56,29.55,10.0,NW,8.1,-,N/A,,Overcast,320,2013-03-03 20:28:00
3:53 PM,39.0,25.0,57,29.60,10.0,NW,9.2,-,N/A,,Overcast,310,2013-03-03 20:53:00
4:53 PM,37.9,24.1,57,29.61,10.0,NW,12.7,-,N/A,,Overcast,310,2013-03-03 21:53:00
5:53 PM,37.0,24.1,59,29.62,10.0,NW,6.9,-,N/A,,Overcast,310,2013-03-03 22:53:00
6:53 PM,36.0,25.0,64,29.63,10.0,NW,8.1,-,N/A,,Overcast,320,2013-03-03 23:53:00
7:53 PM,35.1,25.0,67,29.64,10.0,NNW,8.1,-,N/A,,Overcast,330,2013-03-04 00:53:00
8:53 PM,35.1,24.1,64,29.65,10.0,NNW,11.5,18.4,N/A,,Overcast,330,2013-03-04 01:53:00
9:53 PM,34.0,23.0,64,29.64,10.0,NW,9.2,-,N/A,,Overcast,310,2013-03-04 02:53:00
10:53 PM,33.1,21.9,64,29.65,10.0,NW,10.4,19.6,N/A,,Mostly Cloudy,310,2013-03-04 03:53:00
11:53 PM,32.0,21.9,66,29.64,10.0,NW,8.1,-,N/A,,Partly Cloudy,320,2013-03-04 04:53:00